Location: Beutels
(47.8767°N, 9.8584°E)
Time: 01:57:33
(UTC+00:00)

PSLV R/B - Pass Details

Date: 19 May 2025
Orbit: 586 x 683 km, 97.9° (Epoch: 23 June)

Event Time Altitude Azimuth Distance (km) Brightness Sun altitude
Rises 22:40:42 0° 17° (NNE) 2,846 8.0 -21.7°
Reaches altitude 10° 22:42:56 10° 23° (NNE) 1,931 6.9 -21.7°
Maximum altitude 22:47:00 51° 100° (E) 749 3.8 -21.8°
Enters shadow 22:47:09 50° 108° (ESE) 751 3.7 -21.8°
